Regional Weather Roundup
Issued by NWS

Home | Current Version | Previous Version | Text Only | Print | Product List | Glossary Off
Versions: 1 2 3 4 5 6 7 8 9 10 11 12 13 14 15 16 17 18 19 20 21 22 23 24 25 26 27 28 29 30 31 32 33 34 35 36 37 38 39 40 41 42 43 44 45 46 47 48 49 50

000
ASUS43 KLSX 202159
RWRMO

WEATHER SUMMARY FOR MISSOURI
NATIONAL WEATHER SERVICE SPRINGFIELD MO
500 PM CDT WED AUG 20 2014

NOTE: "FAIR" INDICATES FEW OR NO CLOUDS BELOW 12,000 FEET WITH NO
       SIGNIFICANT WEATHER AND/OR OBSTRUCTIONS TO VISIBILITY.
       CURRENT SKY AND/OR WEATHER CONDITIONS ARE NOT AVAILABLE FOR
       CHILLICOTHE AND FARMINGTON.

MOZ001>031-035>038-043-044-053-054-202300-
...NORTHERN AND WESTERN MISSOURI...

CITY           SKY/WX    TMP DP  RH WIND       PRES   REMARKS
KANSAS CTY INT MOSUNNY   92  70  48 S14G22    29.84F HX  97
KANSAS C DTWN  PTSUNNY   93  70  46 S14       29.83F HX  99
LEE`S SUMMIT   SUNNY     91  71  51 S10G21    29.86F HX  97
ST JOSEPH      PTSUNNY   90  73  57 SE10      29.83S HX  98
KIRKSVILLE     MOSUNNY   86  75  69 SE10      29.92F HX  95

$$
MOZ066>068-077>081-088>096-101>105-202300-
...SOUTHWEST MISSOURI...

CITY           SKY/WX    TMP DP  RH WIND       PRES   REMARKS
SPRINGFIELD    PTSUNNY   91  63  39 SW17      29.95S HX  92
JOPLIN         SUNNY     92  67  43 S17       29.93S HX  95

$$
MOZ032>034-039>042-045>050-055>058-069>072-202300-
...CENTRAL MISSOURI...

CITY           SKY/WX    TMP DP  RH WIND       PRES   REMARKS
COLUMBIA       SUNNY     91  72  53 SW8       29.91F HX  98
JEFFERSON CITY SUNNY     92  70  48 SE8       29.88F HX  97
ROLLA          MOSUNNY   92  67  43 S13G20    29.91F HX  95
SEDALIA        MOSUNNY   92  71  50 S7        29.90F HX  98
OSAGE BEACH    PTSUNNY   86  70  58 SW9G30    29.93R HX  90

$$
MOZ051-052-059>065-202300-
...EAST CENTRAL MISSOURI...

CITY           SKY/WX    TMP DP  RH WIND       PRES   REMARKS
ST LOUIS INTL  MOSUNNY   87  73  62 E10       29.94F HX  94
SPIRIT OF STL  MOSUNNY   88  75  65 E7        29.90F HX  97
ST CHARLES     MOSUNNY   86  74  67 E8        29.92F HX  94

$$
MOZ072>076-082>087-097>100-106>115-202300-
...SOUTH CENTRAL AND SOUTHEAST MISSOURI...

CITY           SKY/WX    TMP DP  RH WIND       PRES   REMARKS
CAPE GIRARDEAU MOSUNNY   91  77  63 SW10      29.93F HX 104
FARMINGTON     PTSUNNY   86  72  62 E13       29.97S HX  92
POPLAR BLUFF   MOSUNNY   93  71  48 S10       29.92F HX 100
WEST PLAINS    MOSUNNY   92  65  40 SW10      29.98F HX  94

$$



USA.gov is the U.S. government's official web portal to all federal, state and local government web resources and services.